Weather History for Centralia, IL

Change the Weather History Date:

Wednesday, June 18, 2014

  Actual Average (KSLO) Record (KSLO)
Temperature  
Mean Temperature 82 °F -  
Max Temperature 95 °F 86 °F 98 °F (1962)
Min Temperature 72 °F 63 °F 49 °F (1960)
Cooling Degree Days 18    
Growing Degree Days 32 (Base 50)    
Moisture  
Dew Point 68 °F    
Average Humidity 64    
Maximum Humidity 84    
Minimum Humidity 41    
Precipitation  
Precipitation 0.00 in - - ()
Sea Level Pressure  
Sea Level Pressure 30.00 in    
Wind  
Wind Speed 9 mph (SSW)    
Max Wind Speed 16 mph    
Max Gust Speed 22 mph    
Visibility 10 miles    
Events      
Averages and records for this station are not official NWS values.
T = Trace of Precipitation, MM = Missing Value Source: NWS Daily Summary

Daily Weather History Graph

Daily Weather History Graph

Search for Another Location

Airport:

Trip Planner

Search our weather history database for the weather conditions in past years. The results will help you decide how hot, cold, wet, or windy it might be!

Date:

Astronomy

Jun. 18, 2014 Rise Set
Actual Time 5:31 AM CDT 8:23 PM CDT
Civil Twilight 5:00 AM CDT 8:55 PM CDT
Nautical Twilight 4:20 AM CDT 9:35 PM CDT
Astronomical Twilight 3:34 AM CDT 10:20 PM CDT
Moon No Moon Rise 11:50 AM CDT (6/18)
Length of Visible Light 15h 54m
Length of Day
14h 51m
Waning Gibbous, 62% of the Moon is Illuminated
Jun 18
Waning Gibbous
Jun 19
Last Quarter
Jun 27
New
Jul 5
First Quarter
Jul 12
Full

Hourly Weather History & Observations

Time (CDT) Temp. Heat Index Dew Point Humidity Pressure Visibility Wind Dir Wind Speed Gust Speed Precip Events Conditions
12:15 AM 73.4 °F - 67.1 °F 81% 30.00 in 10.0 mi South 5.8 mph - N/A   Clear
12:35 AM 73.4 °F - 67.1 °F 81% 29.99 in 10.0 mi South 6.9 mph - N/A   Clear
12:55 AM 73.4 °F - 66.6 °F 79% 29.99 in 10.0 mi South 5.8 mph - N/A   Clear
1:15 AM 72.9 °F - 66.6 °F 81% 30.00 in 10.0 mi South 5.8 mph - N/A   Clear
1:35 AM 72.1 °F - 66.6 °F 83% 30.00 in 10.0 mi South 6.9 mph - N/A   Clear
1:55 AM 72.7 °F - 66.4 °F 81% 30.00 in 10.0 mi SSE 6.9 mph - N/A   Clear
2:15 AM 72.5 °F - 66.4 °F 81% 30.00 in 10.0 mi South 6.9 mph - N/A   Clear
2:35 AM 72.1 °F - 66.2 °F 82% 30.00 in 10.0 mi South 6.9 mph - N/A   Clear
2:55 AM 72.1 °F - 66.4 °F 82% 30.01 in 10.0 mi South 6.9 mph - N/A   Clear
3:15 AM 72.5 °F - 66.4 °F 81% 30.01 in 10.0 mi South 6.9 mph - N/A   Clear
3:35 AM 72.3 °F - 66.4 °F 82% 30.00 in 10.0 mi South 6.9 mph - N/A   Clear
3:55 AM 72.3 °F - 66.6 °F 82% 30.01 in 10.0 mi South 8.1 mph - N/A   Clear
4:15 AM 72.5 °F - 66.7 °F 82% 30.01 in 10.0 mi South 9.2 mph - N/A   Clear
4:35 AM 72.7 °F - 67.1 °F 83% 30.01 in 10.0 mi South 8.1 mph - N/A   Clear
4:55 AM 72.7 °F - 67.3 °F 83% 30.01 in 10.0 mi South 9.2 mph - N/A   Clear
5:15 AM 72.5 °F - 67.3 °F 84% 30.01 in 10.0 mi South 8.1 mph - N/A   Clear
5:35 AM 72.5 °F - 67.5 °F 84% 30.01 in 10.0 mi South 8.1 mph - N/A   Clear
5:55 AM 73.2 °F - 67.6 °F 83% 30.01 in 10.0 mi South 8.1 mph - N/A   Clear
6:15 AM 75.7 °F - 68.0 °F 77% 30.01 in 10.0 mi South 10.4 mph - N/A   Clear
6:35 AM 77.5 °F - 68.2 °F 73% 30.01 in 10.0 mi South 9.2 mph - N/A   Clear
6:55 AM 79.9 °F - 68.7 °F 69% 30.01 in 10.0 mi South 8.1 mph - N/A   Clear
7:15 AM 81.5 °F 84.8 °F 69.1 °F 66% 30.02 in 10.0 mi South 10.4 mph - N/A   Clear
7:35 AM 82.0 °F 85.5 °F 69.3 °F 65% 30.02 in 10.0 mi SSW 11.5 mph - N/A   Clear
7:55 AM 84.7 °F 89.1 °F 69.8 °F 61% 30.02 in 10.0 mi SSW 9.2 mph - N/A   Clear
8:15 AM 83.8 °F 87.8 °F 69.4 °F 62% 30.03 in 10.0 mi SSW 16.1 mph 21.9 mph N/A   Clear
8:35 AM 86.0 °F 90.7 °F 70.0 °F 59% 30.03 in 10.0 mi SSW 12.7 mph 18.4 mph N/A   Clear
8:55 AM 84.2 °F 88.4 °F 69.8 °F 62% 30.03 in 10.0 mi SSW 15.0 mph 18.4 mph N/A   Clear
9:15 AM 83.8 °F 88.1 °F 70.2 °F 63% 30.04 in 10.0 mi SSW 11.5 mph 17.3 mph N/A   Clear
9:35 AM 85.1 °F 89.8 °F 70.5 °F 61% 30.04 in 10.0 mi SW 9.2 mph - N/A   Clear
9:55 AM 86.0 °F 90.7 °F 70.0 °F 59% 30.04 in 10.0 mi SSW 11.5 mph - N/A   Clear
10:15 AM 86.4 °F 91.4 °F 70.5 °F 59% 30.04 in 10.0 mi SSW 11.5 mph 17.3 mph N/A   Clear
10:35 AM 87.1 °F 92.0 °F 70.2 °F 57% 30.03 in 10.0 mi SSW 13.8 mph - N/A   Clear
10:55 AM 89.6 °F 94.7 °F 69.8 °F 52% 30.03 in 10.0 mi SSW 15.0 mph - N/A   Clear
11:15 AM 90.3 °F 96.2 °F 70.7 °F 52% 30.03 in 10.0 mi SSW 15.0 mph 18.4 mph N/A   Clear
11:35 AM 90.3 °F 95.2 °F 69.4 °F 50% 30.03 in 10.0 mi SSW 13.8 mph 18.4 mph N/A   Clear
11:55 AM 91.2 °F 97.0 °F 70.3 °F 50% 30.03 in 10.0 mi SSW 12.7 mph 17.3 mph N/A   Scattered Clouds
12:15 PM 91.9 °F 97.9 °F 70.5 °F 49% 30.02 in 10.0 mi SSW 12.7 mph 17.3 mph N/A   Scattered Clouds
12:35 PM 91.4 °F 97.3 °F 70.2 °F 50% 30.02 in 10.0 mi SSW 15.0 mph 19.6 mph N/A   Scattered Clouds
12:55 PM 90.9 °F 95.8 °F 69.1 °F 49% 30.01 in 10.0 mi SW 16.1 mph 21.9 mph N/A   Scattered Clouds
1:15 PM 92.8 °F 98.6 °F 69.8 °F 47% 30.01 in 10.0 mi SW 12.7 mph 17.3 mph N/A   Clear
1:35 PM 91.2 °F 96.5 °F 69.6 °F 49% 30.00 in 10.0 mi SSW 12.7 mph 20.7 mph N/A   Scattered Clouds
1:55 PM 90.9 °F 96.2 °F 70.0 °F 50% 30.00 in 10.0 mi South 13.8 mph - N/A   Scattered Clouds
2:15 PM 91.0 °F 95.6 °F 69.1 °F 48% 30.00 in 10.0 mi South 16.1 mph 19.6 mph N/A   Scattered Clouds
2:35 PM 92.3 °F 97.0 °F 69.1 °F 46% 30.00 in 10.0 mi SSW 13.8 mph 20.7 mph N/A   Scattered Clouds
2:55 PM 92.8 °F 97.6 °F 68.7 °F 45% 29.99 in 10.0 mi South 12.7 mph - N/A   Scattered Clouds
3:35 PM 93.6 °F 97.4 °F 67.6 °F 42% 29.99 in 10.0 mi SSW 9.2 mph - N/A   Scattered Clouds
3:55 PM 91.2 °F 95.0 °F 67.6 °F 46% 29.99 in 10.0 mi SSW 13.8 mph 21.9 mph N/A   Scattered Clouds
4:15 PM 93.4 °F 96.6 °F 66.4 °F 41% 29.98 in 10.0 mi SSW 16.1 mph 21.9 mph N/A   Scattered Clouds
4:35 PM 91.6 °F 96.2 °F 68.5 °F 47% 29.98 in 10.0 mi South 10.4 mph 18.4 mph N/A   Scattered Clouds
4:55 PM 93.2 °F 97.7 °F 68.0 °F 44% 29.98 in 10.0 mi South 13.8 mph 19.6 mph N/A   Clear
5:15 PM 91.6 °F 95.7 °F 68.2 °F 46% 29.97 in 10.0 mi South 13.8 mph - N/A   Clear
5:55 PM 92.3 °F 96.1 °F 67.5 °F 44% 29.96 in 10.0 mi SSW 9.2 mph 16.1 mph N/A   Clear
6:15 PM 90.7 °F 94.1 °F 67.1 °F 46% 29.96 in 10.0 mi SSW 12.7 mph - N/A   Clear
6:35 PM 90.0 °F 92.0 °F 65.1 °F 44% 29.97 in 10.0 mi SSW 13.8 mph 19.6 mph N/A   Clear
6:55 PM 89.4 °F 91.5 °F 65.7 °F 45% 29.97 in 10.0 mi SSW 11.5 mph - N/A   Clear
7:15 PM 87.1 °F 89.9 °F 66.9 °F 51% 29.97 in 10.0 mi SSW 6.9 mph - N/A   Clear
7:35 PM 86.4 °F 89.4 °F 67.6 °F 53% 29.97 in 10.0 mi SSW 8.1 mph - N/A   Clear
7:55 PM 83.3 °F 86.4 °F 68.2 °F 60% 29.96 in 10.0 mi SSW 8.1 mph - N/A   Clear
8:15 PM 82.4 °F 85.6 °F 68.5 °F 63% 29.97 in 10.0 mi SSW 6.9 mph - N/A   Clear
8:35 PM 80.8 °F 83.6 °F 68.4 °F 66% 29.97 in 10.0 mi SSW 6.9 mph - N/A   Clear
8:55 PM 79.9 °F - 68.0 °F 67% 29.98 in 10.0 mi SSW 8.1 mph - N/A   Clear
9:15 PM 79.7 °F - 68.0 °F 67% 29.98 in 10.0 mi SSW 8.1 mph - N/A   Clear
9:35 PM 78.6 °F - 68.0 °F 70% 29.99 in 10.0 mi SSW 6.9 mph - N/A   Clear
9:55 PM 79.0 °F - 68.0 °F 69% 30.00 in 10.0 mi SSW 5.8 mph - N/A   Clear
10:15 PM 77.4 °F - 68.4 °F 74% 30.02 in 10.0 mi South 4.6 mph - N/A   Clear
10:35 PM 75.6 °F - 68.4 °F 78% 30.02 in 10.0 mi South 5.8 mph - N/A   Clear
10:55 PM 76.1 °F - 68.4 °F 77% 30.02 in 10.0 mi SSW 6.9 mph - N/A   Clear
11:15 PM 76.8 °F - 68.0 °F 74% 30.02 in 10.0 mi SSW 6.9 mph - N/A   Clear
11:35 PM 75.4 °F - 68.0 °F 78% 30.02 in 10.0 mi SSW 5.8 mph - N/A   Clear
11:55 PM 73.4 °F - 68.0 °F 83% 30.02 in 10.0 mi Calm Calm - N/A   Clear